Location: Carrer del Canonge
(41.4901°N, 2.2931°E)
Time: 03:53:52
(UTC+00:00)

SJ-6B - Pass Details

Date: 18 September 2020
Orbit: 511 x 580 km, 97.6° (Epoch: 25 October)

Event Time Altitude Azimuth Distance (km) Brightness Sun altitude
Exits shadow 19:21:30 38° 113° (ESE) 797 3.1 -16.9°
Maximum altitude 19:22:22 46° 73° (ENE) 700 2.9 -17.0°
Drops below altitude 10° 19:25:58 10° 0° (N) 1,747 5.6 -17.7°
Sets 19:28:07 0° 354° (N) 2,644 6.6 -18.0°
